Location: *
(42.5628°N, 2.3633°E)
Time: 02:21:12
(UTC+00:00)

Cosmos 2074 Rocket - Pass Details

Date: 30 March 2020
Orbit: 967 x 986 km, 82.9° (Epoch: 31 May)

Event Time Altitude Azimuth Distance (km) Brightness Sun altitude
Rises 20:41:28 0° 348° (NNW) 3,691 7.7 -26.0°
Reaches altitude 10° 20:44:00 10° 345° (NNW) 2,741 6.9 -26.4°
Maximum altitude 20:50:10 61° 268° (W) 1,110 4.4 -27.3°
Enters shadow 20:52:53 34° 202° (SSW) 1,568 4.9 -27.7°
